Waarnemingen

Advertentie
Mijn weer
Elsenborn, België (6496): temperatuur & dauwpunt: 06.12.2017 05:00:00 - 12.12.2017 05:00:00 (CET)Elsenborn, België (6496): windsnelheid & windstoten: 06.12.2017 05:00:00 - 12.12.2017 05:00:00 (CET)Elsenborn, België (6496): windrichting: 06.12.2017 05:00:00 - 12.12.2017 05:00:00 (CET)Elsenborn, België (6496): luchtdruk: 06.12.2017 05:00:00 - 12.12.2017 05:00:00 (CET)Elsenborn, België (6496): zicht: 06.12.2017 05:00:00 - 12.12.2017 05:00:00 (CET)
Datum & Tijd tt [°C] td [°C] ff [km/u] ff [kn] fx [km/u] fx [kn] dd ppp [hPa] vv [km]
12.12.2017 05:00:00 -1,7 -1,7 22 12 40 21 WNW 999,1 7
12.12.2017 04:00:00 -1,7 -2,0 18 10 - - WNW 996,9 1,3
12.12.2017 03:00:00 -2,0 -2,4 18 10 43 23 WNW 994,4 1,9
12.12.2017 02:00:00 -2,2 -2,5 22 12 43 23 WNW 991,6 1,2
12.12.2017 01:00:00 -2,4 -2,4 22 12 - - W 989,6 0,1
12.12.2017 00:00:00 -1,2 -1,5 18 10 47 25 W 987,0 2,8
11.12.2017 23:00:00 2,2 1,9 18 10 36 19 ZW 983,2 6
11.12.2017 22:00:00 2,5 2,0 18 10 - - ZW 981,8 12
11.12.2017 21:00:00 3,0 2,2 22 12 43 23 ZZW 980,7 17
11.12.2017 20:00:00 3,3 2,7 14 8 36 19 ZZW 979,4 20
11.12.2017 19:00:00 3,7 2,6 22 12 - - ZZW 978,5 20
11.12.2017 18:00:00 4,3 3,1 14 8 36 19 Z 977,5 18
11.12.2017 17:00:00 4,5 3,0 18 10 40 21 Z 976,9 20
11.12.2017 16:00:00 5,0 3,3 14 8 - - Z 976,7 20
11.12.2017 15:00:00 5,2 3,0 11 6 32 18 ZZW 976,5 20
11.12.2017 14:00:00 5,1 4,6 14 8 29 16 ZW 976,6 11
11.12.2017 13:00:00 5,1 4,7 7 4 - - ZZO 976,1 20
11.12.2017 12:00:00 4,1 3,9 7 4 32 18 ZZO 977,2 20
11.12.2017 11:00:00 1,7 1,6 7 4 29 16 ZZW 978,6 8
11.12.2017 10:00:00 0,3 0,2 11 6 - - OZO 979,4 10
11.12.2017 09:00:00 0,1 0,1 11 6 25 14 O 980,6 1,8
11.12.2017 08:00:00 0,2 0,1 14 8 22 12 O 981,6 2,1
11.12.2017 07:00:00 1,0 1,0 11 6 - - O 982,0 4,6
11.12.2017 06:00:00 1,2 1,0 11 6 18 10 ZO 983,1 12
11.12.2017 05:00:00 1,6 1,3 4 2 11 6 N 983,9 11
11.12.2017 04:00:00 2,2 1,8 7 4 - - N 985,1 19
11.12.2017 03:00:00 2,2 1,8 7 4 22 12 WZW 984,5 14
11.12.2017 02:00:00 2,5 1,7 11 6 32 18 W 984,2 12
11.12.2017 01:00:00 2,7 1,4 18 10 - - WZW 984,4 20
11.12.2017 00:00:00 2,7 1,5 22 12 40 21 WZW 983,2 19
10.12.2017 23:00:00 3,0 1,5 25 14 54 29 W 982,0 20
10.12.2017 22:00:00 3,5 1,1 29 16 - - WZW 980,9 20
10.12.2017 21:00:00 3,4 1,3 29 16 58 31 WZW 979,6 20
10.12.2017 20:00:00 3,0 2,0 29 16 58 31 ZW 979,4 14
10.12.2017 19:00:00 3,0 1,5 29 16 - - ZW 978,9 10
10.12.2017 18:00:00 2,7 1,6 22 12 47 25 ZW 978,8 13
10.12.2017 17:00:00 2,8 1,1 22 12 43 23 ZW 979,2 17
10.12.2017 16:00:00 2,3 1,2 22 12 - - ZW 979,5 17
10.12.2017 15:00:00 0,6 0,3 18 10 32 18 ZW 980,0 8
10.12.2017 14:00:00 -1,6 -2,0 14 8 40 21 ZZW 981,3 3,9
10.12.2017 13:00:00 -2,6 -3,1 22 12 - - Z 981,9 0,7
10.12.2017 12:00:00 -3,2 -3,6 25 14 47 25 Z 983,3 0,3
10.12.2017 11:00:00 -2,7 -3,4 25 14 43 23 ZZO 986,6 0,9
10.12.2017 10:00:00 -2,6 -3,4 22 12 - - Z 990,5 0,6
10.12.2017 09:00:00 -2,2 -3,2 22 12 40 21 Z 994,0 2,0
10.12.2017 08:00:00 -2,1 -2,5 14 8 36 19 Z 996,7 12
10.12.2017 07:00:00 -2,1 -2,0 14 8 - - Z 998,8 4,5
10.12.2017 06:00:00 -2,1 -2,1 14 8 29 16 Z 1001,5 3,0
10.12.2017 05:00:00 -2,0 -2,4 14 8 36 19 ZZW 1003,5 14
10.12.2017 04:00:00 -2,2 -2,5 18 10 - - ZZW 1005,1 7
10.12.2017 03:00:00 -2,3 -2,4 14 8 36 19 ZZW 1006,5 4,3
10.12.2017 02:00:00 -2,4 -2,7 18 10 32 18 ZW 1007,8 7
10.12.2017 01:00:00 -2,3 -2,9 14 8 - - ZW 1009,2 13
10.12.2017 00:00:00 -2,2 -2,9 14 8 29 16 ZZW 1010,2 3,4
09.12.2017 23:00:00 -1,9 -3,2 14 8 29 16 ZW 1011,3 20
09.12.2017 22:00:00 -2,0 -2,9 18 10 - - WZW 1012,2 0,9
09.12.2017 21:00:00 -2,2 -3,2 18 10 29 16 ZW 1013,1 18
09.12.2017 20:00:00 -2,4 -3,7 11 6 32 18 ZW 1014,0 20
09.12.2017 19:00:00 -2,6 -4,2 14 8 - - ZW 1014,5 20
09.12.2017 18:00:00 -2,6 -4,5 18 10 32 18 WZW 1014,7 20
09.12.2017 17:00:00 -2,4 -4,4 18 10 32 18 ZW 1015,2 20
09.12.2017 16:00:00 -2,4 -3,8 18 10 - - WZW 1015,3 13
09.12.2017 15:00:00 -2,4 -3,5 14 8 29 16 W 1015,7 16
09.12.2017 14:00:00 -2,4 -3,1 11 6 29 16 WZW 1015,8 15
09.12.2017 13:00:00 -2,5 -3,2 14 8 - - W 1016,2 12
09.12.2017 12:00:00 -2,5 -3,2 22 12 36 19 W 1016,2 6
09.12.2017 11:00:00 -2,7 -3,5 18 10 32 18 WZW 1016,1 13
09.12.2017 10:00:00 -2,8 -3,7 18 10 - - W 1016,2 13
09.12.2017 09:00:00 -3,1 -3,9 18 10 29 16 W 1015,8 13
09.12.2017 08:00:00 -3,2 -4,0 14 8 36 19 WZW 1015,7 14
09.12.2017 07:00:00 -3,1 -4,3 18 10 - - W 1015,7 17
09.12.2017 06:00:00 -3,0 -4,2 18 10 32 18 W 1015,3 18
09.12.2017 05:00:00 -2,9 -3,9 18 10 32 18 W 1015,5 15
09.12.2017 04:00:00 -2,9 -3,9 14 8 - - W 1015,7 14
09.12.2017 03:00:00 -2,9 -4,2 14 8 40 21 W 1015,5 15
09.12.2017 02:00:00 -2,6 -3,9 18 10 32 18 W 1014,8 16
09.12.2017 01:00:00 -2,5 -3,9 18 10 - - W 1015,0 19
09.12.2017 00:00:00 -2,2 -3,5 18 10 36 19 W 1015,0 8
08.12.2017 23:00:00 -2,1 -3,5 14 8 36 19 W 1014,6 17
08.12.2017 22:00:00 -2,0 -3,4 18 10 - - W 1014,3 18
08.12.2017 21:00:00 -1,9 -3,3 18 10 40 21 W 1014,2 17
08.12.2017 20:00:00 -1,8 -3,2 18 10 40 21 W 1013,8 20
08.12.2017 19:00:00 -1,4 -3,2 22 12 - - WNW 1013,8 19
08.12.2017 18:00:00 -1,2 -2,4 18 10 40 21 WNW 1013,3 17
08.12.2017 17:00:00 -1,8 -2,6 25 14 40 21 W 1013,1 1,7
08.12.2017 16:00:00 -0,5 -2,4 18 10 - - W 1012,5 20
08.12.2017 15:00:00 -0,6 -2,3 18 10 43 23 WNW 1012,1 20
08.12.2017 14:00:00 -0,8 -1,6 22 12 40 21 W 1011,5 1,3
08.12.2017 13:00:00 -0,9 -1,8 22 12 - - W 1011,3 7
08.12.2017 12:00:00 -0,5 -2,4 22 12 36 19 W 1011,7 6
08.12.2017 11:00:00 -0,5 -2,5 22 12 40 21 W 1012,0 20
08.12.2017 10:00:00 -0,2 -1,7 18 10 - - W 1011,3 20
08.12.2017 09:00:00 -0,6 -1,6 14 8 36 19 WZW 1011,5 17
08.12.2017 08:00:00 -0,1 -1,2 18 10 36 19 W 1011,1 18
08.12.2017 07:00:00 0,2 -1,2 18 10 - - W 1011,2 20
08.12.2017 06:00:00 0,8 -0,6 18 10 36 19 W 1011,2 15
08.12.2017 05:00:00 1,2 -0,1 22 12 43 23 W 1011,0 10
08.12.2017 04:00:00 1,7 0,5 18 10 - - W 1011,2 16
08.12.2017 03:00:00 2,2 0,7 18 10 36 19 WNW 1011,1 16
08.12.2017 02:00:00 2,3 1,3 22 12 40 21 WNW 1010,7 14
08.12.2017 01:00:00 2,7 1,9 18 10 - - WNW 1010,1 12
08.12.2017 00:00:00 3,0 2,1 22 12 36 19 NW 1009,7 15
07.12.2017 23:00:00 4,1 4,1 18 10 40 21 W 1008,5 4,5
07.12.2017 22:00:00 3,7 3,7 18 10 - - ZW 1008,7 6
07.12.2017 21:00:00 3,5 3,4 22 12 47 25 ZW 1009,2 3,0
07.12.2017 20:00:00 3,3 3,1 22 12 47 25 ZW 1009,7 10
07.12.2017 19:00:00 3,1 2,9 25 14 - - ZW 1010,5 4,7
07.12.2017 18:00:00 2,4 2,3 22 12 43 23 ZZW 1011,8 12
07.12.2017 17:00:00 2,2 2,2 25 14 47 25 ZZW 1013,1 3,0
07.12.2017 16:00:00 1,2 1,2 22 12 - - ZZW 1014,2 0,7
07.12.2017 15:00:00 0,1 0,1 18 10 36 19 ZZW 1015,7 0,4
07.12.2017 14:00:00 -0,2 -0,2 18 10 40 21 ZZW 1017,2 0,6
07.12.2017 13:00:00 -0,4 -0,4 22 12 - - ZZW 1018,1 1,6
07.12.2017 12:00:00 - - - - - - - - -
07.12.2017 11:00:00 -1,2 -1,2 18 10 43 23 ZZW 1020,7 1,5
07.12.2017 10:00:00 -1,5 -1,8 22 12 - - ZW 1021,2 4,5
07.12.2017 09:00:00 -1,5 -2,0 29 16 50 27 ZW 1021,7 6
07.12.2017 08:00:00 -1,4 -2,0 22 12 40 21 ZW 1022,1 9
07.12.2017 07:00:00 -1,4 -1,9 22 12 - - ZW 1022,5 11
07.12.2017 06:00:00 -0,7 -1,0 18 10 40 21 ZW 1022,7 6
07.12.2017 05:00:00 -0,1 -1,2 18 10 36 19 ZW 1023,2 12
07.12.2017 04:00:00 0,3 -0,9 14 8 - - ZW 1024,2 16
07.12.2017 03:00:00 0,5 -0,8 18 10 36 19 ZZW 1024,9 17
07.12.2017 02:00:00 0,6 -1,2 14 8 36 19 ZZW 1025,7 20
07.12.2017 01:00:00 0,8 -1,3 14 8 - - ZW 1026,5 20
07.12.2017 00:00:00 1,3 -0,9 11 6 29 16 ZZW 1027,5 20
06.12.2017 23:00:00 1,7 -0,5 14 8 32 18 ZW 1028,0 20
06.12.2017 22:00:00 2,0 -0,1 14 8 - - ZW 1028,9 18
06.12.2017 21:00:00 2,4 0,2 14 8 22 12 ZW 1029,5 19
06.12.2017 20:00:00 2,4 1,5 7 4 18 10 ZW 1030,0 7
06.12.2017 19:00:00 2,7 1,9 7 4 - - ZW 1030,5 8
06.12.2017 18:00:00 3,0 2,1 11 6 18 10 ZW 1030,7 8
06.12.2017 17:00:00 3,2 2,4 7 4 14 8 ZW 1031,0 10
06.12.2017 16:00:00 3,4 2,2 11 6 - - ZW 1031,2 13
06.12.2017 15:00:00 3,5 2,4 7 4 14 8 ZW 1031,5 15
06.12.2017 14:00:00 3,5 2,5 7 4 18 10 WZW 1032,0 13
06.12.2017 13:00:00 3,5 2,4 11 6 - - WZW 1032,5 16
06.12.2017 12:00:00 3,3 2,2 11 6 18 10 WZW 1033,0 14
06.12.2017 11:00:00 3,0 2,1 7 4 18 10 W 1033,4 12
06.12.2017 10:00:00 2,7 2,0 11 6 - - WZW 1033,5 11
06.12.2017 09:00:00 2,4 1,9 7 4 18 10 WZW 1033,5 8
06.12.2017 08:00:00 2,2 1,7 11 6 14 8 WZW 1033,7 8
06.12.2017 07:00:00 2,2 1,5 7 4 - - WZW 1033,9 11
06.12.2017 06:00:00 2,0 1,6 7 4 29 16 WZW 1034,2 8
06.12.2017 05:00:00 2,2 1,5 14 8 25 14 W 1034,5 10

tt = temperatuur
td = dauwpunt
ff = windsnelheid
fx = windstoten
dd = windrichting
ppp = luchtdruk
vv = zicht

Weerstations in de omgeving